GEFSSGP_850_meantemp_198.txt.gz
Temperature
23 23 23 23 27 28 28 30 31 31 31 30 30 30 29 28 27 25 24 24 23 23 23 22 22 21 21 21 20 20 20 20 20 20 20 20 19 19 19 19 19 19 19 19 19 19 19 19 19
23 23 24 26 28 28 29 31 31 31 30 30 30 29 29 27 26 25 24 24 23 23 23 22 22 21 21 21 20 20 20 20 20 20 19 19 19 19 19 19 19 19 18 18 18 18 18 18 18
23 24 26 29 29 29 30 31 31 31 30 30 30 29 28 26 26 24 24 24 23 22 22 22 22 21 21 21 20 20 20 20 20 19 19 19 19 19 19 19 19 18 18 18 18 18 18 18 18
23 26 27 29 29 30 31 31 31 31 31 30 30 29 26 26 25 24 24 24 23 22 22 22 22 21 21 20 20 20 20 20 19 19 19 19 19 19 19 18 18 18 18 18 18 18 18 18 18
25 27 29 29 30 31 31 31 30 31 31 30 29 28 26 25 24 24 24 24 23 22 22 22 21 21 21 20 20 20 20 19 19 19 19 19 19 19 18 18 18 18 18 18 18 18 18 18 18
27 29 29 29 30 31 31 31 31 31 30 29 28 27 25 24 24 24 24 24 23 22 22 22 21 21 20 20 20 20 19 19 19 19 19 19 18 18 18 18 18 18 18 18 18 18 18 18 18
28 29 29 30 30 31 31 31 30 30 30 29 28 27 25 24 24 24 24 23 23 22 21 21 21 20 20 20 20 19 19 19 19 19 19 18 18 18 18 18 18 18 18 18 18 18 17 17 17
28 30 29 30 30 30 31 30 30 30 29 28 27 27 25 24 24 24 24 23 22 21 21 21 20 20 20 20 19 19 19 19 19 18 18 18 18 18 18 18 18 18 17 17 17 17 17 17 17
29 29 29 30 30 30 31 30 30 29 28 27 26 25 24 24 24 24 23 23 22 21 21 20 20 20 19 19 19 19 19 19 18 18 18 18 18 17 17 17 17 17 17 17 17 17 17 17 17
30 29 30 31 31 31 30 30 29 29 27 27 25 25 24 24 24 23 23 22 22 21 20 20 20 19 19 19 19 19 18 18 18 18 18 17 17 17 17 17 17 17 17 17 17 17 17 17 17
31 30 31 31 31 30 30 30 29 29 27 27 25 24 24 24 23 23 22 22 21 21 20 20 20 19 19 18 18 18 18 18 18 17 17 17 17 17 16 16 16 16 16 16 16 16 16 16 16
31 31 31 31 30 30 30 29 29 28 27 26 25 24 24 23 22 22 21 21 21 20 20 19 19 19 19 18 18 18 17 17 17 17 17 17 17 16 16 16 16 16 16 16 16 16 16 16 16
31 31 31 31 30 30 29 29 28 27 26 25 25 24 23 23 22 21 21 20 20 19 19 19 19 19 18 18 18 17 17 17 17 17 17 16 16 16 16 16 16 16 16 16 16 16 16 16 16
31 31 31 30 30 29 29 29 28 27 26 25 24 24 23 22 22 21 20 20 19 19 19 19 18 18 18 18 17 17 17 17 17 17 16 16 16 16 16 16 16 16 16 16 16 16 15 15 16
31 30 30 31 30 30 29 28 27 26 26 25 24 23 22 22 21 21 20 19 19 19 18 18 18 18 18 17 17 17 17 17 17 16 16 16 16 16 16 16 16 16 16 16 16 15 15 15 15
31 30 29 30 30 30 29 26 26 25 26 25 24 23 22 21 21 20 20 19 18 18 18 18 17 17 17 17 17 17 17 16 16 16 16 16 16 16 15 15 15 15 15 15 15 15 15 15 15
29 28 28 29 30 30 29 26 26 25 25 25 24 23 22 21 20 19 19 19 18 18 18 17 17 17 17 17 16 16 16 16 16 16 16 16 15 15 15 15 15 15 15 15 15 15 15 15 15
28 28 28 29 29 29 28 27 26 26 25 24 24 23 22 21 20 19 19 18 18 18 17 17 17 17 16 16 16 16 16 16 16 15 15 15 15 15 15 15 15 15 15 15 15 15 14 14 14
29 29 29 29 29 28 28 27 26 26 25 24 23 23 22 21 20 19 19 18 18 17 17 17 16 16 16 16 15 15 15 15 15 15 15 15 15 15 15 14 14 14 14 14 14 14 14 14 14
29 28 28 29 29 28 28 27 26 25 25 24 23 22 21 21 20 19 19 18 18 17 17 16 16 16 15 15 15 15 15 15 15 15 15 15 14 14 14 14 14 14 14 14 14 14 14 14 14
29 28 28 28 28 28 28 26 25 24 24 23 22 22 21 20 20 19 19 18 18 17 17 16 16 15 15 15 15 15 15 15 15 15 15 14 14 14 14 14 14 14 14 14 14 13 13 13 13
28 29 28 28 28 27 27 25 24 24 23 23 22 22 21 20 20 19 19 18 18 17 17 16 15 15 15 14 14 14 14 14 14 14 14 14 14 14 14 14 14 14 13 13 13 13 13 13 13
28 29 28 28 28 27 27 25 23 23 22 22 22 21 21 20 19 19 18 18 17 17 16 16 15 15 14 14 14 14 14 14 14 14 14 14 14 14 14 14 13 13 13 13 13 13 13 13 13
29 29 28 29 27 25 26 25 22 22 22 22 22 21 20 20 19 19 18 17 17 17 16 16 15 15 14 14 14 14 14 14 14 14 14 14 14 14 14 14 13 13 13 13 13 13 13 13 13
28 27 26 25 25 24 25 24 21 22 23 22 21 21 20 20 19 18 18 17 16 16 16 15 15 14 14 14 14 14 13 14 14 14 13 14 13 13 13 13 13 13 13 13 13 13 13 13 13
27 26 24 23 24 24 25 23 21 23 22 22 21 20 20 19 19 18 17 17 16 16 15 15 14 14 14 14 13 13 13 13 13 13 13 13 13 13 13 13 13 13 13 12 12 12 12 13 12
27 26 26 24 24 24 24 22 21 22 22 22 21 20 19 19 18 18 17 17 16 16 15 15 14 14 14 13 13 13 13 13 13 13 13 13 13 13 13 13 13 12 12 12 12 12 12 12 12
28 27 25 24 23 23 23 22 20 20 21 21 21 20 19 18 18 17 17 17 16 16 15 15 14 14 14 13 13 13 13 13 13 13 13 13 13 13 13 12 12 12 12 12 12 12 12 12 12
26 25 25 24 24 22 21 20 21 20 21 20 20 19 19 18 18 17 17 17 16 16 15 15 14 14 14 13 13 13 13 13 13 13 13 12 13 12 12 12 12 12 12 12 12 12 12 12 12
26 25 24 23 22 23 22 20 22 21 21 20 20 19 18 18 17 17 17 16 16 15 15 15 14 14 14 13 13 13 13 13 12 12 12 12 12 12 12 12 12 12 12 12 12 12 12 12 12

GEFSSGP_850_meantemp_204.txt.gz
Temperature
23 23 22 22 20 19 21 22 24 24 25 26 26 25 24 23 23 21 22 22 22 22 22 22 21 21 21 21 21 21 21 20 20 20 20 20 20 20 19 19 19 19 19 19 19 19 18 18 18
23 23 22 21 19 20 21 23 24 24 25 25 25 25 24 23 22 22 22 22 22 22 22 22 21 21 21 21 21 21 20 20 20 20 20 20 19 19 19 19 19 19 19 19 19 19 18 18 18
23 22 22 19 20 20 22 23 24 25 26 26 25 24 23 23 22 22 22 22 22 22 22 22 21 21 21 21 21 20 20 20 20 20 20 19 19 19 19 19 19 19 19 18 18 18 18 18 18
23 22 22 19 21 22 23 24 24 25 25 25 25 23 22 22 23 23 22 22 22 22 22 21 21 21 21 21 20 20 20 20 20 20 19 19 19 19 19 19 19 18 18 18 18 18 18 18 18
23 22 20 20 22 23 24 24 24 25 25 25 24 23 22 22 22 22 22 22 22 22 21 21 21 21 21 20 20 20 20 20 19 19 19 19 19 19 18 18 18 18 18 18 18 18 18 18 18
23 20 19 20 22 24 24 25 24 24 24 24 24 23 22 22 22 22 22 22 22 21 21 21 20 20 20 20 20 20 20 19 19 19 19 19 18 18 18 18 18 18 18 18 18 18 18 18 18
22 20 20 22 22 23 25 25 24 24 23 24 24 22 21 21 22 22 21 21 21 21 21 20 20 20 20 20 20 19 19 19 19 19 19 18 18 18 18 18 18 18 18 17 17 17 17 17 17
24 20 22 22 23 23 24 25 25 24 23 23 23 22 21 21 21 21 21 21 21 20 20 20 20 20 19 19 19 19 19 19 18 18 18 18 18 18 17 17 17 17 17 17 17 17 17 17 17
25 20 21 22 23 23 24 24 24 24 24 23 23 22 22 21 21 21 20 20 20 19 19 19 19 19 19 19 19 18 18 18 18 18 18 18 18 17 17 17 17 17 17 17 17 17 17 17 17
24 20 22 24 24 24 24 24 24 24 23 22 22 22 22 21 21 21 20 20 19 19 19 19 19 19 19 18 18 18 18 18 18 18 18 17 17 17 17 17 17 17 17 16 16 16 16 16 16
23 22 24 25 25 25 24 24 25 23 22 22 22 21 21 21 21 20 20 20 20 19 19 19 19 18 18 18 18 18 18 18 17 17 17 17 17 17 17 17 17 16 16 16 16 16 16 16 16
24 24 25 25 26 25 24 24 24 24 23 23 22 22 21 21 21 20 20 20 19 19 19 19 18 18 18 18 17 17 17 17 17 17 17 17 17 17 16 16 16 16 16 16 16 16 16 16 16
24 24 26 25 25 25 24 24 23 23 22 22 21 21 21 20 20 20 20 19 19 19 19 18 18 18 18 18 17 17 17 17 17 17 16 16 16 16 16 16 16 16 16 16 16 16 16 16 16
24 24 25 25 25 25 24 23 23 22 22 21 20 20 20 20 20 19 19 19 19 18 18 18 18 18 18 17 17 17 17 17 16 16 16 16 16 16 16 16 16 16 15 15 15 15 15 15 15
25 24 24 24 24 24 23 22 22 22 21 20 20 20 19 19 19 19 19 19 18 18 18 18 17 17 17 17 17 17 17 16 16 16 16 16 16 15 15 15 15 15 15 15 15 15 15 15 15
23 22 22 23 24 24 23 21 21 21 21 20 19 19 19 19 19 19 19 19 18 18 18 17 17 17 17 17 17 16 16 16 16 16 16 15 15 15 15 15 15 15 15 15 15 15 15 15 15
21 21 22 23 24 23 22 21 21 21 20 19 19 19 18 18 18 18 18 18 18 18 17 17 17 17 16 16 16 16 16 16 16 16 15 15 15 15 15 15 15 14 14 14 14 14 14 14 15
21 22 23 22 23 23 21 20 20 20 20 19 18 18 18 18 18 18 18 18 18 18 17 17 17 16 16 16 16 16 16 15 15 15 15 15 15 14 14 14 14 14 14 14 14 14 14 14 14
23 23 22 23 23 22 21 20 19 19 19 18 18 18 18 18 18 18 17 17 18 17 17 17 16 16 16 15 15 15 15 15 15 15 15 15 14 14 14 14 14 14 14 14 14 14 14 14 14
23 22 22 22 23 22 20 20 19 19 19 18 18 18 18 18 17 17 17 17 17 17 16 16 16 16 15 15 15 15 15 15 14 14 14 14 14 14 14 14 14 14 14 13 13 13 13 13 13
23 22 22 22 22 22 21 19 19 19 19 18 18 18 18 17 17 17 17 16 16 16 16 16 16 15 15 15 15 15 14 14 14 14 14 14 14 14 14 14 14 14 13 13 13 13 13 13 13
23 23 23 23 21 19 20 18 18 18 18 18 18 17 17 17 17 17 16 16 16 16 15 15 15 15 15 14 14 14 14 14 14 14 14 14 14 14 14 13 13 13 13 13 13 13 13 13 13
24 23 23 22 20 19 19 18 17 17 17 17 17 17 17 17 17 16 16 16 16 15 15 15 15 15 15 14 14 14 14 14 14 13 13 13 13 13 13 13 13 13 13 13 13 13 13 13 13
24 22 21 19 18 18 18 18 17 16 17 17 17 17 17 17 16 16 16 16 15 15 15 15 15 14 14 14 14 14 13 13 13 13 13 13 13 13 13 13 13 13 13 13 13 13 13 13 12
22 19 18 18 17 17 18 17 16 17 17 17 17 17 17 16 16 16 16 15 15 15 15 15 14 14 14 14 14 13 13 13 13 13 13 13 13 13 13 13 13 13 13 13 13 13 13 12 12
22 19 18 18 18 17 18 17 17 17 17 17 17 17 16 16 16 16 15 15 15 15 15 14 14 14 14 14 13 13 13 13 13 13 13 13 12 12 12 12 12 13 12 12 13 12 12 12 12
22 19 19 17 18 17 17 17 17 17 17 17 17 16 16 16 16 15 15 15 15 15 15 14 14 14 14 13 13 13 13 13 13 13 12 12 12 12 12 12 12 12 12 12 12 12 12 12 12
21 20 17 17 17 17 17 17 16 16 16 16 15 16 16 16 16 15 15 15 15 15 14 14 14 14 13 13 13 13 13 13 12 12 12 12 12 12 12 12 12 12 12 12 12 12 12 12 12
21 20 17 16 16 16 16 16 17 16 15 15 15 16 16 16 15 15 15 15 15 15 14 14 14 14 13 13 13 13 13 12 12 12 12 12 12 12 12 12 12 12 12 12 12 12 12 12 11
21 19 17 17 17 16 15 15 17 16 16 16 16 16 16 16 15 15 15 15 15 14 14 14 14 14 13 13 13 13 13 13 13 12 12 12 12 12 12 12 12 12 12 12 12 12 12 11 11

GEFSSGP_850_meantemp_210.txt.gz
Temperature
22 21 21 21 19 18 20 20 21 22 22 22 22 22 22 21 21 21 22 22 22 21 21 20 20 20 20 20 20 20 20 20 20 20 19 19 19 19 19 19 19 18 18 18 18 18 18 18 18
22 21 21 20 18 19 20 21 21 22 22 22 22 22 21 21 21 21 22 22 21 21 21 20 20 20 20 20 20 20 20 20 19 19 19 19 19 19 19 19 18 18 18 18 18 18 18 18 18
22 21 21 17 18 19 21 22 21 22 22 22 22 21 21 21 21 21 22 21 21 21 20 20 20 20 20 20 20 20 20 19 19 19 19 19 19 19 18 18 18 18 18 18 18 18 18 18 18
22 21 21 18 20 20 20 21 21 22 22 22 22 21 21 21 21 21 21 21 21 21 20 20 20 20 20 20 20 19 19 19 19 19 19 19 18 18 18 18 18 18 18 18 18 17 17 17 17
22 21 18 18 20 20 21 21 22 21 22 22 21 21 20 21 21 21 21 21 21 21 20 20 19 19 19 19 19 19 19 19 19 19 19 18 18 18 18 18 18 18 18 17 17 17 17 17 17
22 19 18 19 20 21 21 22 22 21 21 21 21 20 20 20 21 21 21 21 21 20 20 19 19 19 19 19 19 19 19 19 19 18 18 18 18 18 18 17 17 17 17 17 17 17 17 17 17
21 17 19 20 20 21 22 22 21 21 21 21 21 20 20 20 20 20 20 20 20 20 19 19 19 19 19 19 19 18 18 18 18 18 18 18 17 17 17 17 17 17 17 17 17 17 17 17 17
22 18 20 19 20 21 22 22 22 22 21 21 21 20 19 20 20 20 20 20 20 19 19 19 19 19 19 18 18 18 18 18 18 18 18 17 17 17 17 17 17 17 17 16 16 16 16 16 16
22 18 19 20 21 21 21 21 22 22 21 21 20 20 20 20 20 20 20 19 19 19 19 19 18 18 18 18 18 18 18 18 17 17 17 17 17 17 17 16 16 16 16 16 16 16 16 16 16
21 18 20 21 21 21 21 21 21 21 20 20 20 20 20 20 20 20 20 19 19 19 19 18 18 18 18 18 18 18 17 17 17 17 17 17 16 16 16 16 16 16 16 16 16 16 16 16 16
20 20 21 21 22 22 21 21 21 20 19 19 19 19 19 19 20 20 19 19 19 19 18 18 18 18 18 18 18 17 17 17 17 17 17 16 16 16 16 16 16 16 16 16 16 16 16 16 16
20 21 21 22 22 22 21 21 20 20 20 20 20 20 19 19 19 19 19 19 19 18 18 18 18 18 17 17 17 17 17 17 16 16 16 16 16 16 16 16 16 16 16 16 15 15 15 15 15
21 21 22 22 22 21 21 20 20 19 20 20 19 19 19 19 18 18 18 18 18 18 18 18 18 17 17 17 17 16 16 16 16 16 16 16 16 16 16 16 15 15 15 15 15 15 15 15 15
21 21 21 21 21 21 20 19 19 19 19 19 18 18 18 18 18 18 18 18 18 18 17 17 17 17 17 17 16 16 16 16 16 16 16 16 15 15 15 15 15 15 15 15 15 15 15 15 15
21 20 20 21 21 21 20 19 18 18 18 18 17 18 18 18 18 18 18 18 17 17 17 17 17 17 16 16 16 16 16 16 16 15 15 15 15 15 15 15 15 15 15 15 15 15 15 15 14
20 20 20 20 20 20 20 19 18 18 18 17 17 17 17 17 17 17 17 17 17 17 17 16 16 16 16 16 16 15 15 15 15 15 15 15 15 15 15 15 15 14 14 14 14 14 14 14 14
19 20 20 20 20 19 19 18 18 18 17 16 16 16 17 17 17 17 17 17 17 16 16 16 16 16 15 15 15 15 15 15 15 15 15 15 14 14 14 14 14 14 14 14 14 14 14 14 14
20 20 20 20 20 19 18 17 17 17 17 16 16 16 16 16 16 16 16 16 16 16 16 16 16 15 15 15 15 15 15 14 14 14 14 14 14 14 14 14 14 14 14 14 14 14 14 14 14
21 20 20 19 20 18 17 17 17 17 16 16 16 16 16 16 16 16 16 16 16 16 16 16 16 15 15 15 14 14 14 14 14 14 14 14 14 14 14 14 14 14 14 14 13 13 13 13 13
20 20 19 19 19 18 17 17 17 16 16 16 16 16 16 16 16 16 16 16 16 15 15 15 15 15 15 14 14 14 14 14 14 14 14 14 14 14 14 13 13 13 13 13 13 13 13 13 13
21 20 19 19 19 18 18 17 17 16 16 16 16 16 16 16 16 16 15 15 15 15 15 15 15 14 14 14 14 14 14 14 14 14 14 13 13 13 13 13 13 13 13 13 13 13 13 13 13
20 21 20 19 18 17 18 17 17 16 15 15 15 16 16 16 16 16 15 15 15 15 15 15 14 14 14 14 14 13 13 13 13 13 13 13 13 13 13 13 13 13 13 13 13 13 13 13 13
21 19 19 18 17 16 16 16 16 16 15 15 15 15 15 15 15 15 15 15 15 15 14 14 14 14 14 14 13 13 13 13 13 13 13 13 13 13 13 13 13 13 13 13 13 13 13 12 12
20 18 17 15 15 16 16 16 16 15 15 15 15 15 15 15 15 15 15 15 15 14 14 14 14 14 14 13 13 13 13 13 13 13 13 13 13 13 12 12 12 12 12 12 12 12 12 12 12
19 18 17 17 16 16 16 16 15 16 15 15 15 15 15 15 15 15 15 15 14 14 14 14 14 14 13 13 13 13 13 13 13 12 12 12 12 12 12 12 12 12 12 12 12 12 12 12 12
19 18 17 17 16 16 16 16 15 16 16 16 15 15 15 15 15 15 15 15 14 14 14 14 14 14 13 13 13 13 13 13 12 12 12 12 12 12 12 12 12 12 12 12 12 12 12 12 12
19 17 16 15 16 15 15 15 16 16 15 15 15 15 15 15 15 15 15 15 14 14 14 14 14 14 13 13 13 13 13 12 12 12 12 12 12 12 12 12 12 12 12 12 12 12 12 12 12
18 16 14 15 16 16 16 16 15 15 15 14 14 14 15 15 15 15 15 14 14 14 14 14 14 14 13 13 13 13 13 12 12 12 12 12 12 12 12 12 12 12 12 12 11 11 11 11 11
18 16 14 13 14 15 15 15 15 15 14 14 13 14 15 15 15 15 14 14 14 14 14 14 13 13 13 13 13 13 13 12 12 12 12 12 12 12 12 12 12 12 12 11 11 11 11 11 11
18 17 15 16 15 14 14 14 15 14 14 14 14 15 15 15 15 15 14 14 14 14 14 14 13 13 13 13 13 13 12 12 12 12 12 12 12 12 12 12 11 11 11 11 11 11 11 11 11

GEFSSGP_850_meantemp_216.txt.gz
Temperature
22 21 21 22 27 29 29 29 29 28 28 27 26 27 27 27 26 24 21 21 20 20 20 20 20 20 20 20 20 19 19 19 19 19 19 19 19 19 19 19 19 19 18 18 18 18 18 18 18
21 21 22 25 29 29 28 29 28 28 27 26 26 26 26 25 23 22 20 20 20 20 20 20 20 20 20 20 19 19 19 19 19 19 19 19 19 19 18 18 18 18 18 18 18 18 18 18 18
21 21 24 28 29 29 28 28 28 27 26 26 26 25 25 23 22 21 20 20 20 20 19 20 20 20 19 19 19 19 19 19 19 19 19 19 18 18 18 18 18 18 18 18 18 18 17 17 17
21 23 26 29 28 28 28 28 28 27 26 26 26 25 23 21 21 20 20 20 20 20 19 20 20 19 19 19 19 19 19 19 19 19 18 18 18 18 18 18 18 18 18 17 17 17 17 17 17
22 26 29 28 28 28 28 28 27 28 27 26 26 25 23 20 20 20 20 20 20 19 19 19 19 19 19 19 19 19 19 19 19 18 18 18 18 18 18 18 17 17 17 17 17 17 17 17 17
26 28 29 28 28 28 28 27 27 27 27 26 25 25 23 20 20 20 20 20 19 19 19 19 19 19 19 19 18 18 18 18 18 18 18 18 18 17 17 17 17 17 17 17 17 17 17 17 17
27 29 29 29 28 28 28 27 27 27 26 25 25 25 23 20 20 20 20 20 19 19 19 18 19 19 18 18 18 18 18 18 18 18 18 18 17 17 17 17 17 17 17 17 17 17 17 17 17
26 29 29 29 28 28 27 26 25 26 25 24 24 25 23 20 19 19 19 19 19 19 18 18 18 18 18 18 18 18 18 18 18 17 17 17 17 17 17 17 17 17 16 16 16 16 16 16 16
25 28 28 28 28 28 27 26 25 24 24 23 23 22 21 20 19 19 19 19 19 18 18 18 18 18 17 17 17 17 17 17 17 17 17 17 16 16 16 16 16 16 16 16 16 16 16 16 16
27 28 28 29 29 28 27 26 25 25 25 24 22 21 20 19 19 20 19 19 19 18 18 18 18 17 17 17 17 17 16 16 16 16 16 16 16 16 16 16 16 16 16 16 16 16 16 16 16
28 28 28 28 27 27 27 26 25 26 26 24 23 21 20 20 20 20 19 19 19 18 18 18 17 17 17 17 16 16 16 16 16 16 16 16 16 16 15 15 16 16 16 15 15 15 15 15 15
28 28 27 27 27 26 26 26 25 25 24 23 22 21 20 20 20 19 19 19 18 18 17 17 17 17 16 16 16 16 16 16 16 15 16 15 15 15 15 15 15 15 15 15 15 15 15 15 15
28 28 27 26 26 26 25 25 25 24 23 22 21 20 20 20 19 18 18 18 18 17 17 17 17 16 16 16 16 16 15 16 16 15 15 15 15 15 15 15 15 15 15 15 15 15 15 15 15
28 27 26 26 26 25 26 25 25 23 22 22 21 21 20 19 19 18 18 18 17 17 17 16 16 16 16 16 16 15 15 15 15 15 15 15 15 15 15 15 15 15 15 15 15 15 15 15 15
27 27 27 27 26 26 26 25 25 23 22 22 21 20 20 19 19 18 18 17 17 16 16 16 16 16 16 16 15 15 15 15 15 15 15 15 15 15 15 14 14 14 14 14 14 14 14 14 15
28 28 28 27 27 26 26 25 24 22 22 22 21 20 19 19 18 18 17 17 16 16 16 16 16 15 15 15 15 15 15 15 15 15 15 15 14 14 14 14 14 14 14 14 14 14 14 14 14
28 28 28 27 27 27 26 25 24 22 22 22 21 20 20 19 18 18 17 17 16 16 15 15 15 15 15 15 15 15 15 14 14 15 15 14 14 14 14 14 14 14 14 14 14 14 14 14 14
28 28 28 27 27 26 26 25 24 22 22 22 21 20 20 19 18 17 17 16 16 15 15 15 15 15 15 15 14 14 14 14 14 14 14 14 14 14 14 14 14 14 14 14 14 14 13 14 14
28 28 27 27 26 26 25 24 24 23 22 22 21 20 20 19 18 17 17 16 15 15 15 15 15 15 15 14 14 14 14 14 14 14 14 14 14 13 13 13 13 13 13 13 13 13 14 14 13
27 27 27 26 26 25 25 24 24 23 22 22 21 20 20 19 18 17 16 16 15 15 15 15 15 15 14 14 14 14 14 14 14 14 14 13 13 13 13 13 13 13 13 13 13 13 13 13 13
27 27 27 26 25 25 25 24 24 23 22 21 21 20 19 19 18 17 16 16 16 15 15 15 14 14 14 14 14 14 14 14 14 13 13 13 13 13 13 13 13 13 13 13 13 13 13 13 13
27 27 27 26 26 26 25 25 24 24 23 22 21 20 19 19 18 17 16 16 15 15 15 14 14 14 14 14 14 13 13 14 13 13 13 13 13 13 13 13 13 13 13 13 13 13 13 13 13
27 27 26 26 26 26 26 25 25 24 23 23 22 20 19 18 18 17 17 16 15 15 15 14 14 14 14 14 13 13 13 13 13 13 13 13 13 13 13 13 13 13 13 13 13 13 13 13 13
26 26 26 26 27 25 25 25 24 24 23 23 22 20 19 19 18 17 17 16 15 15 14 14 14 14 14 13 13 13 13 13 13 13 13 13 13 13 13 13 12 12 12 12 12 12 12 12 12
26 26 26 26 25 25 25 24 24 23 23 23 22 20 19 18 18 17 16 15 15 15 14 14 14 14 13 13 13 13 13 13 13 13 13 13 13 13 12 12 12 12 12 12 12 12 12 12 12
26 26 25 25 25 26 24 24 24 23 22 21 21 20 19 18 18 17 16 15 15 14 14 14 14 13 13 13 13 13 13 13 13 13 12 12 12 12 12 12 12 12 12 12 12 12 12 12 12
26 26 26 25 25 24 25 24 23 22 22 21 21 20 19 18 17 17 16 15 15 14 14 14 13 13 13 13 13 13 13 13 12 12 12 12 12 12 12 12 12 12 12 12 12 12 12 12 12
26 26 25 25 24 24 24 24 24 22 22 22 21 20 19 18 17 16 16 15 14 14 14 14 13 13 13 13 13 13 13 12 12 12 12 12 12 12 12 12 12 12 12 12 12 12 12 12 12
25 25 25 25 25 24 23 23 23 22 22 21 21 20 19 18 17 16 16 15 15 14 14 14 13 13 13 13 13 12 12 12 12 12 12 12 12 12 12 12 12 12 12 12 12 12 12 11 11
25 25 24 24 24 24 23 23 23 22 22 21 21 19 19 18 17 16 16 15 15 14 14 14 13 13 13 13 13 12 12 12 12 12 12 12 12 12 12 12 12 12 12 12 11 11 11 11 11

GEFSSGP_850_meantemp_222.txt.gz
Temperature
23 23 23 23 27 27 28 29 31 30 30 29 29 28 28 27 25 23 23 23 22 22 22 21 21 21 21 20 20 20 20 20 19 19 19 19 19 19 19 19 19 19 18 18 18 18 18 18 18
23 23 24 26 27 27 28 30 30 30 29 29 29 28 27 26 25 24 23 23 22 22 21 21 21 21 21 20 20 20 20 20 19 19 19 19 19 19 19 18 18 18 18 18 18 18 18 18 18
23 23 26 28 28 28 29 30 30 30 29 29 29 28 26 25 24 23 23 23 22 22 21 21 21 21 20 20 20 20 19 19 19 19 19 19 19 18 18 18 18 18 18 18 18 18 18 18 18
23 25 27 28 28 29 30 30 30 30 29 29 29 27 25 24 23 23 23 23 22 22 21 21 21 20 20 20 20 19 19 19 19 19 18 18 18 18 18 18 18 18 18 18 18 18 18 18 18
25 27 28 29 29 30 30 30 29 30 29 29 28 27 25 23 23 23 23 23 22 21 21 21 21 20 20 20 19 19 19 19 19 18 18 18 18 18 18 18 18 18 18 17 17 17 17 17 18
27 29 28 28 30 30 30 29 29 30 29 28 28 27 24 23 23 23 23 23 22 22 21 21 20 20 20 20 19 19 19 19 18 18 18 18 18 18 18 17 17 17 17 17 17 17 17 17 17
27 29 29 29 30 30 30 29 29 29 29 28 27 27 24 23 23 23 22 22 22 21 21 21 20 20 20 19 19 19 19 18 18 18 18 18 18 17 17 17 17 17 17 17 17 17 17 17 17
28 29 29 30 30 29 30 29 29 29 28 27 27 26 24 22 22 22 22 22 21 21 20 20 20 20 19 19 19 19 18 18 18 18 18 17 17 17 17 17 17 17 17 17 17 17 17 17 17
28 28 28 29 30 29 29 29 29 28 28 27 26 25 23 23 22 22 22 21 21 20 20 20 20 19 19 19 18 18 18 18 17 17 17 17 17 17 17 17 17 17 17 17 17 17 17 17 17
30 29 29 30 30 30 29 29 29 29 28 27 25 24 23 23 22 22 22 21 21 20 20 19 19 19 18 18 18 18 17 17 17 17 17 17 17 17 17 16 17 17 17 17 17 17 17 17 17
30 29 30 30 30 30 30 29 28 29 28 27 25 24 23 22 22 22 22 21 20 20 20 19 19 18 18 18 18 17 17 17 17 17 17 17 16 16 16 16 16 16 16 16 16 16 16 16 16
31 31 30 30 30 30 29 28 28 27 27 26 25 24 23 22 22 22 21 21 20 19 19 19 19 18 18 18 17 17 17 17 17 17 17 16 16 16 16 16 16 16 16 16 16 16 16 16 16
31 31 30 30 30 29 29 28 28 27 26 26 24 24 23 23 22 21 21 20 20 19 19 19 18 18 18 17 17 17 17 17 17 16 17 16 16 16 16 16 16 16 16 16 16 16 16 16 16
31 31 30 30 29 29 29 28 28 27 26 25 25 24 23 23 22 21 20 20 19 19 18 18 18 17 17 17 17 16 16 16 16 16 16 16 16 16 16 16 15 15 15 15 16 16 16 16 16
31 31 30 30 30 29 29 28 28 26 26 25 25 24 23 22 22 21 20 19 19 18 18 18 17 17 17 17 16 16 16 16 16 16 16 16 16 15 15 15 15 15 15 15 15 15 15 16 16
31 30 29 30 30 29 29 27 27 26 26 25 25 24 23 22 22 21 20 19 19 18 18 17 17 17 17 16 16 16 16 16 16 16 16 16 15 15 15 15 15 15 15 15 15 15 15 15 15
30 29 29 29 30 29 28 27 26 26 26 25 25 24 23 22 21 21 20 19 18 18 17 17 17 16 16 16 16 16 16 16 16 16 15 15 15 15 15 15 15 15 15 15 15 15 15 15 15
28 29 29 29 29 28 27 27 26 25 26 26 25 24 23 22 21 21 20 19 18 17 17 17 16 16 16 16 16 15 15 15 15 15 15 15 15 15 15 15 15 14 14 14 14 15 15 15 15
29 29 28 29 29 28 28 27 26 26 26 26 25 24 23 22 21 20 20 19 18 17 17 16 16 16 16 15 15 15 15 15 15 15 15 15 15 15 15 15 14 14 14 14 14 14 14 14 14
29 28 28 29 29 29 28 27 27 27 26 26 25 24 23 22 21 20 19 19 18 17 17 16 16 16 15 15 15 15 15 15 15 15 15 15 14 14 14 14 14 14 14 14 14 14 14 14 14
29 28 29 28 28 29 28 26 26 26 26 25 25 24 23 22 21 20 19 18 18 17 16 16 16 15 15 15 15 15 15 15 15 15 15 14 14 14 14 14 14 14 14 14 14 14 14 14 14
28 29 29 29 28 27 27 25 25 25 25 25 24 24 23 22 21 20 19 18 17 17 16 16 16 15 15 15 15 14 14 14 14 14 14 14 14 14 14 14 14 14 14 14 14 14 14 14 14
29 30 29 29 28 28 27 26 25 24 24 24 24 24 23 22 21 20 19 18 17 17 16 16 15 15 15 15 15 14 14 14 14 14 14 14 14 14 14 14 14 13 14 14 14 13 13 13 14
30 30 30 29 28 26 26 25 24 24 24 24 24 24 23 22 21 20 19 18 17 17 16 16 15 15 15 15 14 14 14 14 14 14 14 14 14 14 14 14 13 13 13 13 13 13 13 13 13
30 28 27 26 25 25 26 25 24 25 25 25 24 24 23 22 21 20 19 18 17 17 16 15 15 15 15 14 14 14 14 14 14 14 14 14 14 14 14 14 13 13 13 13 13 13 13 13 13
29 28 26 24 25 26 26 25 25 26 26 25 24 23 22 22 21 20 19 18 17 16 16 15 15 14 14 14 14 14 14 14 14 14 14 14 13 13 13 14 13 13 13 13 13 13 13 13 13
28 28 28 26 26 25 25 24 24 25 25 24 24 23 22 21 21 20 19 18 17 16 16 15 15 14 14 14 14 14 14 13 13 13 13 13 13 13 13 13 13 13 13 13 13 13 13 13 13
29 29 28 26 25 25 25 24 23 23 23 24 24 23 22 21 20 19 19 18 17 16 15 15 15 14 14 14 14 14 13 13 13 13 13 13 13 13 13 13 13 13 13 13 13 13 13 13 13
29 28 27 27 26 25 24 23 24 23 24 24 24 23 22 21 20 19 18 18 17 16 16 15 15 14 14 14 14 13 13 13 13 13 13 13 13 13 13 13 13 12 13 13 12 12 13 13 13
29 28 27 25 25 25 24 23 25 24 24 24 23 23 22 21 20 19 18 18 17 16 16 15 15 14 14 14 14 13 13 13 13 13 13 13 13 13 13 12 12 12 12 12 12 12 12 12 12